www.pogodaiklimat.ru

АРХИВ ПОГОДЫ в Краснодаре

Время (UTC), дата Ветер
(напр.,м/с)
 
Видим.   Явления Облачность Т
(С)
Тd
(С)
f
(%)
Тe
(С)
Тes
(С)
Комфортность P
(гПа)
Po
(гПа)
Тmin
(С)
Tmax
(С)
R
(мм)
S
(см)
03 23.07 Ю 1 10 км ясно +19.5 +18.4 93 +23 +24 комфорт 1011.3 1007.8 +19.4
06 23.07 СВ 1 10 км ясно +26.5 +19.3 65 +32 +43 очень
душно
1011.2 1007.8
09 23.07 В 3 10 км ясно +30.8 +12.7 33 +32 +47 жарко 1010.8 1007.4
12 23.07 СВ 2 10 км ясно +33.2 +9.6 23 +32 +45 жарко 1009.6 1006.2
15 23.07 СВ 2 10 км ясно +32.6 +11.1 27 +32 +35 жарко 1008.6 1005.2 +33.6
18 23.07 С 1 10 км ясно +27.5 +13.9 43 +30 +30 жарко 1008.1 1004.7
21 23.07 СВ 1 10 км ясно +25.6 +13.8 48 +28 +28 жарко 1007.9 1004.5
00 24.07 В 1 10 км ясно +22.5 +14.9 62 +26 +26 жарко 1007.2 1003.7
03 24.07 штиль 0 10 км 3/1 600 м
[Sc Ci]
+20.8 +17.0 79 +24 +25 комфорт 1007.0 1003.5 +20.0
06 24.07 Ю 1 10 км 3/3 1000 м
[Sc]
+27.7 +17.6 54 +32 +40 очень
душно
1006.8 1003.4
09 24.07 СВ 2 10 км 4/3 1000 м
[Cu med, cong Cc]
+32.6 +19.9 47 +39 +51 опасность
солнечного
удара
1006.5 1003.1
12 24.07 Ю 2 10 км 3/1 1000 м
[Cu hum Ci fib]
+34.7 +17.6 36 +38 +49 очень
душно
1005.6 1002.3
15 24.07 СВ 1 10 км ясно +34.2 +16.2 34 +37 +39 очень
душно
1004.8 1001.5 +34.9
18 24.07 СВ 1 10 км 8/3 1000 м
[Sc Ci fib]
+30.1 +15.5 41 +33 +33 душно 1004.6 1001.2
21 24.07 СВ 2 10 км 4/0
[Ci fib]
+27.1 +14.5 46 +30 +30 душно 1004.1 1000.7
00 25.07 штиль 0 10 км 4/0
[Ci fib]
+24.3 +14.6 55 +27 +27 жарко 1004.0 1000.6
03 25.07 В 1 10 км 10/4 1000 м
[Cu Sc Ac trans Cc]
+23.5 +16.8 66 +27 +27 душно 1005.5 1002.1 +22.5
06 25.07 Ю 2 10 км 10/3 1000 м
[Sc Ac As]
+23.3 +19.4 79 +30 +32 очень
душно
1007.5 1004.0
09 25.07 СЗ 1 4000 м гроза, ливневой дождь 10/10 600 м
[Cb cap]
+21.2 +17.9 81 +25 +25 комфорт 1008.8 1005.3
12 25.07 СВ 2 10 км в посл. час ливневой дождь {гроза} 9/6 1000 м
[Sc Ac As]
+24.0 +18.2 70 +28 +31 душно 1010.0 1006.5
15 25.07 СВ 1 10 км 8/4 1000 м
[Sc Ac trans]
+26.8 +16.2 52 +30 +31 душно 1009.6 1006.2 +27.4 2
18 25.07 штиль 0 10 км 3/0
[Ac trans]
+22.4 +18.8 80 +28 +28 душно 1009.9 1006.4
21 25.07 штиль 0 10 км ясно +21.0 +18.2 84 +25 +25 комфорт 1010.0 1006.5
00 26.07 штиль 0 10 км ясно +19.8 +17.3 86 +22 +22 комфорт 1009.9 1006.4
03 26.07 СВ 1 10 км ясно +19.7 +17.3 86 +23 +24 комфорт 1010.4 1006.8 +18.9
06 26.07 СВ 1 10 км ясно +26.8 +19.5 64 +32 +43 очень
душно
1010.5 1007.1
09 26.07 СВ 3 10 км ясно +32.5 +14.3 33 +34 +49 очень
жарко
1009.8 1006.4
12 26.07 СВ 3
{10}
10 км ясно +33.8 +14.2 31 +35 +46 очень
жарко
1009.1 1005.8
15 26.07 СВ 2 10 км ясно +33.6 +11.7 26 +33 +35 жарко 1008.1 1004.8 +34.2
18 26.07 СВ 2 10 км ясно +29.0 +10.9 33 +30 +30 жарко 1009.1 1005.7
21 26.07 СВ 2 10 км ясно +26.3 +10.6 37 +27 +27 жарко 1009.6 1006.2
00 27.07 СВ 2 10 км ясно +23.7 +10.2 42 +25 +25 комфорт 1010.2 1006.7
03 27.07 СВ 1 10 км 10/0
[Ac trans Cc]
+22.0 +9.6 45 +24 +24 комфорт 1010.7 1007.2 +21.9
06 27.07 СВ 3 10 км 6/0
[Ac trans Cs]
+27.7 +9.7 32 +28 +33 жарко 1011.3 1007.8
09 27.07 СВ 2 10 км 10/3 1000 м
[Sc Ac trans]
+29.2 +10.9 32 +30 +35 жарко 1011.9 1008.5
12 27.07 СВ 2 10 км 10/8 1000 м
[Sc Ac trans]
+31.2 +11.6 30 +32 +33 жарко 1011.7 1008.3
15 27.07 В 2 10 км 6/0
[Ac trans Ci fib]
+29.7 +14.6 40 +32 +33 душно 1012.2 1008.8 +32.2
18 27.07 СВ 3 10 км 3/0
[Ac trans]
+27.1 +14.2 45 +29 +29 жарко 1012.7 1009.3
21 27.07 СВ 2 10 км 4/0
[Ac trans]
+25.0 +7.7 33 +25 +25 комфорт 1013.6 1010.1
00 28.07 СВ 3 10 км 3/0
[Ac trans]
+23.7 +3.4 27 +23 +23 комфорт 1014.0 1010.5
03 28.07 СВ 2 10 км 8/6 1000 м
[Cb cap Ac trans]
+21.7 +4.7 33 +22 +22 комфорт 1014.6 1011.1 +21.7
06 28.07 СВ 3 10 км 6/3 1000 м
[Sc Ac cast]
+23.8 +6.5 33 +24 +28 комфорт 1015.2 1011.7 +21.5
09 28.07 В 3 10 км 10/5 1000 м
[Cu Sc Ac cast Ci fib]
+27.4 +8.6 31 +27 +31 жарко 1015.7 1012.3
12 28.07 В 3 10 км 8/3 1000 м
[Cu med, cong Ac trans Cc]
+28.8 +9.7 30 +29 +33 жарко 1015.0 1011.5
15 28.07 СВ 1 10 км 5/3 1000 м
[Sc diur, vesp Ac cast Cc]
+30.3 +11.1 31 +31 +32 жарко 1013.7 1010.3 +30.4
18 28.07 штиль 0 10 км 3/0
[Ac trans]
+25.3 +12.3 44 +27 +27 жарко 1014.1 1010.6
21 28.07 СВ 2 10 км 5/0
[Ci fib]
+23.2 +7.7 37 +24 +24 комфорт 1013.6 1010.1
00 29.07 СВ 2 10 км 4/0
[Ci fib]
+20.6 +5.9 38 +22 +22 комфорт 1013.3 1009.8
03 29.07 СВ 1 10 км ясно +19.2 +5.8 41 +21 +21 комфорт 1013.3 1009.8 +18.9
06 29.07 В 3 10 км ясно +25.6 +12.1 43 +27 +35 жарко 1013.2 1009.7
09 29.07 В 5-10
{12}
10 км ясно +30.0 +8.4 26 +29 +39 жарко 1012.7 1009.3
12 29.07 В 5-10
{12}
10 км ясно +31.6 +5.8 20 +30 +36 жарко 1012.0 1008.6
15 29.07 СВ 3
{12}
10 км ясно +31.0 +6.5 22 +30 +31 жарко 1011.1 1007.7 +31.9
18 29.07 СВ 1 10 км ясно +26.4 +7.6 30 +26 +26 жарко 1011.1 1007.7
21 29.07 СВ 1 10 км ясно +22.9 +9.8 43 +25 +25 комфорт 1011.4 1007.9
00 30.07 СВ 2 10 км ясно +20.8 +11.0 53 +23 +23 комфорт 1011.3 1007.8

 

Обсудить погоду в Краснодаре на МЕТЕОФОРУМЕ

 

Местоположение метеостанции Краснодар (Краснодарский край, Россия): широта 45.03 долгота 39.15 высота над уровнем моря 34 м.

В архиве по умолчанию представлена погода в Краснодаре за последнюю неделю. Архивные данные за месяц целиком и за предыдущие месяцы, начиная с января 2011 года, Вы можете получить, выбрав интересующий диапазон дат из раскрывающегося списка и нажав кнопку "Ввод!".

Внимание! Время в таблицах - всемирное. Для получения местного времени необходимо прибавить поправку, которая в Краснодаре равна 4 ч.

Ветер - указаны скорость ветра в м/с - средняя за 10 мин, порывы в срок и между сроками (в фигурных скобках) и направление, откуда дует ветер: С - северный, СВ - северо-восточный, В - восточный, ЮВ - юго-восточный, Ю - южный, ЮЗ - юго-западный, З - западный, СЗ - северо-западный.
Видимость - горизонтальная дальность видимости в метрах или километрах. При видимости от 1 до 10 км при отсутствии осадков обычно наблюдается дымка, при ухудшении видимости до 1 км и менее - туман. В сухую погоду видимость может ухудшаться дымом, пылью или мглою.
Явления - указаны атсосферные явления, наблюдавшиеся в срок или в последний час перед сроком; фигурными скобками обозначены явления, наблюдавшиеся между сроками (за 1-3 часа до срока); квадратными скобками обозначены град или гололедные отложения с указанием их диаметра в мм.
Облачность - указаны через наклонную черту общая и нижняя облачность в баллах и высота нижней границы облаков в метрах; квадратными скобками обозначены формы облаков: Ci - перистые, Cs - перисто-слоистые, Cc - перисто-кучевые, Ac - высококучевые, As - высокослоистые, Sc - слоисто-кучевые, Ns - слоисто-дождевые, Cu - кучевые, Cb - кучево-дождевые. Подробнее классификацию облаков см. в Атласе облаков (PDF).
T - Температура воздуха - температура, измеренная на высоте 2 м над землей.
Td - Температура точки росы - температура, при понижении до которой содержащийся в воздухе водяной пар достигнет насыщения.
f - Относительная влажность воздуха - влажноcть воздуха, измеренная на высоте 2 м над землей.
Te - Эффективная температура - температура, которую ощущает одетый по сезону человек в тени. Характеристика душности погоды. При расчете учитывается влияние влажности воздуха и скорости ветра на теплоощущения человека.
Tes - Эффективная температура на солнце - температура, которую ощущает человек, с поправкой на солнечный нагрев. Характеристика знойности погоды. Зависит от высоты солнца над горизонтом, облачности и скорости ветра. Ночью, в пасмурную погоду, а также при ветре 12 м/с и более поправка равна нулю.
P - Атмосферное давление - приведенное к уровню моря атмосферное давление.
Po - Атмосферное давление - измеренное на уровне метеостанции атмосферное давление.
Tmin - Минимальная температура - минимум температуры воздуха на высоте 2 м над землей.
Tmax - Максимальная температура - максимум температуры воздуха на высоте 2 м над землей.
R - Количество осадков - Количество выпавших осадков, мм.
S - Снежный покров - Высота снежного покрова, см.